Regional Weather Roundup
Issued by NWS

Home | Current Version | Previous Version | Graphics & Text | Print | Product List | Glossary On
Versions: 1 2 3 4 5 6 7 8 9 10 11 12 13 14 15 16 17 18 19 20 21 22 23 24 25 26 27
000
ASUS45 KBOU 240906
RWRCO

WEATHER ROUNDUP FOR COLORADO
NATIONAL WEATHER SERVICE DENVER/BOULDER CO
300 AM MDT THU APR 24 2014

NOTE: "FAIR" INDICATES FEW OR NO CLOUDS BELOW 12000 FEET WITH NO
SIGNIFICANT WEATHER AND/OR OBSTRUCTIONS TO VISIBILITY.

COZ001>005-013-030-031-241000-
...NORTHWEST COLORADO...

CITY           SKY/WX    TMP DP  RH WIND       PRES   REMARKS
CRAIG          CLEAR     22  16  78 CALM      30.10R
HAYDEN         CLEAR     27  14  59 CALM      30.11R
MEEKER         CLEAR     24  16  71 CALM      30.11R
MOUNT WERNER   CLEAR     19  10  68 W16G25    30.06S WCI   5
STEAMBOAT SPGS CLEAR     29  13  52 CALM      30.08S
WALDEN         CLEAR     23  12  63 SE6       30.04S WCI  16
$$

COZ006>008-011-241000-
...WEST CENTRAL VALLEYS...

CITY           SKY/WX    TMP DP  RH WIND       PRES   REMARKS
GRAND JUNCTION CLEAR     31  11  43 CALM      30.07S
MONTROSE       CLEAR     33  15  47 SE9       30.12R WCI  25
EAGLE          CLEAR     27  19  74 E5        30.13R WCI  21
RIFLE          CLEAR     31  14  49 S5        30.10R WCI  26
DELTA          NOT AVBL
NUCLA          NOT AVBL
$$

COZ017>023-064>068-241000-
...SOUTHWEST COLORADO...

CITY           SKY/WX    TMP DP  RH WIND       PRES   REMARKS
DURANGO        CLEAR     34   8  33 S6        30.02R WCI  29
CORTEZ         CLEAR     35  13  40 NE3       30.07S
PAGOSA SPRINGS CLEAR     29  11  48 CALM      30.04R
TELLURIDE      CLEAR     28  10  47 CALM      30.10S
WOLF CREEK PAS CLEAR     16   1  53 N5        30.08R WCI   9
$$

COZ009-010-012-014-032>034-037-058>063-241000-
...CENTRAL COLORADO...

CITY           SKY/WX    TMP DP  RH WIND       PRES   REMARKS
ASPEN          CLEAR     26  14  60 CALM      30.08R
BUENA VISTA    CLEAR     32   9  38 NW8       30.01R WCI  25
COPPER MTN     PTCLDY    16   9  73 W17       30.07S WCI   0
BERTHOUD PASS  FAIR       7  -2  66 NW41G49   29.96F WCI -20
COTTONWOOD PAS CLEAR     32   3  29 SW18G32   30.02S WCI  20
GUNNISON       CLEAR     28   9  43 W5        30.10R WCI  23
KREMMLING      CLEAR     30  10  43 W12       30.10R WCI  21
LEADVILLE      PTCLDY    21   7  54 E6        30.05S WCI  13
MONARCH PASS   CLEAR     16   9  73 W39       30.12R WCI  -7
SALIDA         CLEAR     39  10  30 W12G20    30.07S
SUNLIGHT       CLEAR     21  12  68 CALM      30.12S
WILKERSON PASS CLEAR     21   7  53 NW8       30.05R WCI  12
$$

COZ069>075-241000-
...SAN LUIS VALLEY/SANGRE DE CRISTO MOUNTAINS...

CITY           SKY/WX    TMP DP  RH WIND       PRES   REMARKS
ALAMOSA        CLEAR     36  10  34 NW13      30.02R
LA VETA PASS   PTCLDY    27  10  50 CALM      30.03S
SAGUACHE       CLEAR     32   9  37 NW12      30.03R WCI  23
$$

COZ035-036-038>040-241000-
...NORTHERN COLORADO FRONT RANGE...

CITY           SKY/WX    TMP DP  RH WIND       PRES   REMARKS
DENVER INTL AP CLOUDY    42  28  57 N15       29.98R
DMNS CITY PARK   N/A     39  34  82 S3        29.97R
AURORA         MOCLDY    37  34  87 E6        29.98R
FRONT RANGE AP NOT AVBL
ERIE MUNI ARPT PTCLDY    39  37  92 CALM      29.97R
BOULDER MUN AP CLEAR     41  32  70 NE6       29.96R
CENTENNIAL     PTCLDY    35  33  92 S7        29.97R WCI  29
BROOMFIELD     CLEAR     37  32  81 N10       29.97R
FORT COLLINS   PTCLDY    43  12  28 N20G25    29.98S
LONGMONT       NOT AVBL
$$

COZ041-046-047-076>085-087-088-241000-
...PIKES PEAK/PALMER DIVIDE AND SOUTHERN FOOTHILLS...

CITY           SKY/WX    TMP DP  RH WIND       PRES   REMARKS
COLO. SPRINGS  PTCLDY    36  29  75 N7        29.99R
A. F. ACADEMY  CLEAR     33  33  99 NW5       29.98R WCI  29
ELLICOTT       NOT AVBL
FALCON         PTCLDY    33  26  76 N9        29.99R WCI  26
FORT CARSON    CLEAR     36  31  81 NW10      29.97R
LIMON          CLOUDY    38  26  62 N16       29.95R
MONUMENT HILL  PTCLDY    28  28 100 W3        29.97S
TRINIDAD       CLOUDY    39  34  82 N10       30.00R
$$

COZ042>045-048>051-090-091-241000-
...NORTHEAST COLORADO...

CITY           SKY/WX    TMP DP  RH WIND       PRES   REMARKS
GREELEY ARPT   PTCLDY    43  10  26 NW24G31   29.98R
AKRON          CLOUDY    43  22  43 NW18      29.92R
BURLINGTON     CLOUDY    50  17  27 NW20      29.87F
WRAY           CLOUDY    51  33  50 N18G28    29.86R
STERLING       NOT AVBL
HOLYOKE        NOT AVBL
FORT MORGAN    NOT AVBL
$$

COZ086-089-092>099-241000-
...SOUTHEAST COLORADO...

CITY           SKY/WX    TMP DP  RH WIND       PRES   REMARKS
PUEBLO         PTCLDY    44  32  62 SW3       29.97R
LA JUNTA       CLOUDY    45  36  70 NE12      29.94R
LAMAR          LGT RAIN  43  37  79 N22G33    29.91F
SPRINGFIELD      N/A     40  37  89 N28G41    29.92R
$$



USA.gov is the U.S. government's official web portal to all federal, state and local government web resources and services.